Time,TemperatureF,DewpointF,PressureIn,WindDirection,WindDirectionDegrees,WindSpeedMPH,WindSpeedGustMPH,Humidity,HourlyPrecipIn,Conditions,Clouds,dailyrainin,SoftwareType,DateUTC
2013-02-28 00:00:00,15.1,9.5,30.48,WNW,296,0.0,0.0,78,0.00,,,0.00,Wunderground v.1.15,2013-02-28 07:00:00,
2013-02-28 00:05:00,14.9,9.3,30.48,WNW,296,0.0,0.0,78,0.00,,,0.00,Wunderground v.1.15,2013-02-28 07:05:00,
2013-02-28 00:10:00,14.8,9.5,30.48,WNW,296,0.0,0.0,79,0.00,,,0.00,Wunderground v.1.15,2013-02-28 07:10:00,
2013-02-28 00:15:00,14.9,9.6,30.48,WNW,296,0.0,0.0,79,0.00,,,0.00,Wunderground v.1.15,2013-02-28 07:15:00,
2013-02-28 00:20:00,15.2,10.1,30.49,WNW,296,0.0,0.0,80,0.00,,,0.00,Wunderground v.1.15,2013-02-28 07:20:00,
2013-02-28 00:25:00,15.2,10.1,30.49,WNW,296,0.0,0.0,80,0.00,,,0.00,Wunderground v.1.15,2013-02-28 07:25:00,
2013-02-28 00:30:00,15.1,9.8,30.49,WNW,296,0.0,0.0,79,0.00,,,0.00,Wunderground v.1.15,2013-02-28 07:30:00,
2013-02-28 00:35:00,14.9,9.8,30.50,WNW,296,0.0,0.0,80,0.00,,,0.00,Wunderground v.1.15,2013-02-28 07:35:00,
2013-02-28 00:40:00,15.1,10.0,30.50,WNW,296,0.0,0.0,80,0.00,,,0.00,Wunderground v.1.15,2013-02-28 07:40:00,
2013-02-28 00:45:00,15.2,10.1,30.50,WNW,296,0.0,0.0,80,0.00,,,0.00,Wunderground v.1.15,2013-02-28 07:45:00,
2013-02-28 00:50:00,15.1,10.0,30.50,WNW,296,0.0,0.0,80,0.00,,,0.00,Wunderground v.1.15,2013-02-28 07:50:00,
2013-02-28 00:55:00,15.1,10.0,30.50,WNW,296,0.0,0.0,80,0.00,,,0.00,Wunderground v.1.15,2013-02-28 07:55:00,
2013-02-28 01:00:00,15.1,10.0,30.50,WNW,296,0.0,0.0,80,0.00,,,0.00,Wunderground v.1.15,2013-02-28 08:00:00,
2013-02-28 01:05:00,15.1,10.3,30.51,WNW,296,0.0,0.0,81,0.00,,,0.00,Wunderground v.1.15,2013-02-28 08:05:00,
2013-02-28 01:10:00,15.2,10.4,30.51,WNW,296,0.0,0.0,81,0.00,,,0.00,Wunderground v.1.15,2013-02-28 08:10:00,
2013-02-28 01:15:00,15.6,10.8,30.51,WNW,296,0.0,0.0,81,0.00,,,0.00,Wunderground v.1.15,2013-02-28 08:15:00,
2013-02-28 01:20:00,15.4,10.6,30.51,WNW,296,0.0,0.0,81,0.00,,,0.00,Wunderground v.1.15,2013-02-28 08:20:00,
2013-02-28 01:25:00,15.1,10.0,30.51,WNW,296,0.0,0.0,80,0.00,,,0.00,Wunderground v.1.15,2013-02-28 08:25:00,
2013-02-28 01:30:00,14.6,9.6,30.51,WNW,296,0.0,0.0,80,0.00,,,0.00,Wunderground v.1.15,2013-02-28 08:30:00,
2013-02-28 01:36:00,14.4,9.4,30.51,WNW,296,2.0,2.0,80,0.00,,,0.00,Wunderground v.1.15,2013-02-28 08:36:00,
2013-02-28 01:41:00,17.0,12.7,30.51,SW,222,2.0,2.0,83,0.00,,,0.00,Wunderground v.1.15,2013-02-28 08:41:00,
2013-02-28 01:46:00,19.2,13.5,30.51,South,181,2.0,5.0,78,0.00,,,0.00,Wunderground v.1.15,2013-02-28 08:46:00,
2013-02-28 01:51:00,22.4,14.7,30.47,SSE,148,4.0,5.0,72,0.00,,,0.00,Wunderground v.1.15,2013-02-28 08:51:00,
2013-02-28 01:56:00,24.5,14.4,30.47,SE,132,6.0,10.0,65,0.00,,,0.00,Wunderground v.1.15,2013-02-28 08:56:00,
2013-02-28 02:01:00,26.4,13.6,30.47,SE,132,2.0,4.0,58,0.00,,,0.00,Wunderground v.1.15,2013-02-28 09:01:00,
2013-02-28 02:06:00,27.2,13.1,30.44,SE,139,7.0,7.0,55,0.00,,,0.00,Wunderground v.1.15,2013-02-28 09:06:00,
2013-02-28 02:11:00,27.6,12.2,30.44,SE,130,5.0,7.0,52,0.00,,,0.00,Wunderground v.1.15,2013-02-28 09:11:00,
2013-02-28 02:16:00,27.9,12.1,30.44,SE,136,2.0,10.0,51,0.00,,,0.00,Wunderground v.1.15,2013-02-28 09:16:00,
2013-02-28 02:21:00,27.8,11.5,30.43,SE,134,3.0,4.0,50,0.00,,,0.00,Wunderground v.1.15,2013-02-28 09:21:00,
2013-02-28 02:26:00,27.6,11.4,30.43,SE,130,3.0,6.0,50,0.00,,,0.00,Wunderground v.1.15,2013-02-28 09:26:00,
2013-02-28 07:08:00,17.5,8.7,30.61,SE,130,3.0,3.0,68,0.00,,,0.00,Wunderground v.1.15,2013-02-28 14:08:00,
2013-02-28 07:13:00,16.9,8.8,30.61,SE,131,2.0,4.0,70,0.00,,,0.00,Wunderground v.1.15,2013-02-28 14:13:00,
2013-02-28 07:18:00,17.5,9.7,30.61,SE,131,2.0,4.0,71,0.00,,,0.00,Wunderground v.1.15,2013-02-28 14:18:00,
2013-02-28 07:23:00,18.3,10.5,30.62,SE,131,0.0,3.0,71,0.00,,,0.00,Wunderground v.1.15,2013-02-28 14:23:00,
2013-02-28 07:28:00,18.6,10.4,30.62,SE,131,0.0,3.0,70,0.00,,,0.00,Wunderground v.1.15,2013-02-28 14:28:00,
2013-02-28 07:33:00,19.4,11.2,30.62,SE,128,4.0,6.0,70,0.00,,,0.00,Wunderground v.1.15,2013-02-28 14:33:00,
2013-02-28 07:38:00,20.3,11.1,30.61,ESE,109,4.0,14.0,67,0.00,,,0.00,Wunderground v.1.15,2013-02-28 14:38:00,
2013-02-28 07:43:00,20.8,11.2,30.61,ESE,109,0.0,4.0,66,0.00,,,0.00,Wunderground v.1.15,2013-02-28 14:43:00,
2013-02-28 07:48:00,21.0,11.8,30.61,ESE,109,3.0,4.0,67,0.00,,,0.00,Wunderground v.1.15,2013-02-28 14:48:00,
2013-02-28 07:53:00,21.1,11.8,30.62,ESE,109,0.0,4.0,67,0.00,,,0.00,Wunderground v.1.15,2013-02-28 14:53:00,
2013-02-28 07:58:00,21.6,12.3,30.62,ESE,110,2.0,4.0,67,0.00,,,0.00,Wunderground v.1.15,2013-02-28 14:58:00,
2013-02-28 08:04:00,22.2,11.9,30.62,SE,134,3.0,6.0,64,0.00,,,0.00,Wunderground v.1.15,2013-02-28 15:04:00,
2013-02-28 08:09:00,22.7,11.6,30.62,East,99,1.0,6.0,62,0.00,,,0.00,Wunderground v.1.15,2013-02-28 15:09:00,
2013-02-28 08:14:00,23.0,11.2,30.62,ESE,110,4.0,7.0,60,0.00,,,0.00,Wunderground v.1.15,2013-02-28 15:14:00,
2013-02-28 08:19:00,23.3,11.4,30.62,East,93,2.0,7.0,60,0.00,,,0.00,Wunderground v.1.15,2013-02-28 15:19:00,
2013-02-28 08:24:00,23.6,11.4,30.63,ENE,74,1.0,7.0,59,0.00,,,0.00,Wunderground v.1.15,2013-02-28 15:24:00,
2013-02-28 08:29:00,23.9,11.3,30.63,ESE,115,4.0,10.0,58,0.00,,,0.00,Wunderground v.1.15,2013-02-28 15:29:00,
2013-02-28 08:34:00,24.4,11.7,30.63,East,86,0.0,5.0,58,0.00,,,0.00,Wunderground v.1.15,2013-02-28 15:34:00,
2013-02-28 08:39:00,24.8,11.3,30.64,ESE,115,3.0,5.0,56,0.00,,,0.00,Wunderground v.1.15,2013-02-28 15:39:00,
2013-02-28 08:44:00,25.3,11.4,30.64,ESE,105,5.0,9.0,55,0.00,,,0.00,Wunderground v.1.15,2013-02-28 15:44:00,
2013-02-28 08:49:00,25.7,11.7,30.64,ESE,117,5.0,9.0,55,0.00,,,0.00,Wunderground v.1.15,2013-02-28 15:49:00,
2013-02-28 08:54:00,26.1,11.3,30.63,SSE,165,8.0,8.0,53,0.00,,,0.00,Wunderground v.1.15,2013-02-28 15:54:00,
2013-02-28 08:59:00,26.4,11.1,30.63,SE,143,2.0,9.0,52,0.00,,,0.00,Wunderground v.1.15,2013-02-28 15:59:00,
2013-02-28 09:04:00,26.6,10.9,30.63,SE,128,6.0,7.0,51,0.00,,,0.00,Wunderground v.1.15,2013-02-28 16:04:00,
2013-02-28 09:09:00,26.7,11.0,30.62,ENE,75,3.0,7.0,51,0.00,,,0.00,Wunderground v.1.15,2013-02-28 16:09:00,
2013-02-28 09:14:00,26.7,11.0,30.62,ESE,109,5.0,6.0,51,0.00,,,0.00,Wunderground v.1.15,2013-02-28 16:14:00,
2013-02-28 09:19:00,27.2,11.0,30.62,East,94,4.0,7.0,50,0.00,,,0.00,Wunderground v.1.15,2013-02-28 16:19:00,
2013-02-28 09:24:00,27.5,11.3,30.64,SE,128,3.0,7.0,50,0.00,,,0.00,Wunderground v.1.15,2013-02-28 16:24:00,
2013-02-28 09:29:00,27.6,10.9,30.64,ESE,121,4.0,7.0,49,0.00,,,0.00,Wunderground v.1.15,2013-02-28 16:29:00,
2013-02-28 09:34:00,28.1,11.4,30.64,East,96,2.0,6.0,49,0.00,,,0.00,Wunderground v.1.15,2013-02-28 16:34:00,
2013-02-28 09:39:00,28.7,11.5,30.63,East,80,3.0,8.0,48,0.00,,,0.00,Wunderground v.1.15,2013-02-28 16:39:00,
2013-02-28 09:44:00,29.3,12.0,30.63,ENE,74,6.0,9.0,48,0.00,,,0.00,Wunderground v.1.15,2013-02-28 16:44:00,
2013-02-28 09:49:00,30.0,11.7,30.63,SE,126,1.0,10.0,46,0.00,,,0.00,Wunderground v.1.15,2013-02-28 16:49:00,
2013-02-28 09:54:00,30.4,12.1,30.61,ESE,114,5.0,10.0,46,0.00,,,0.00,Wunderground v.1.15,2013-02-28 16:54:00,
2013-02-28 09:59:00,30.9,11.5,30.61,ENE,78,8.0,11.0,44,0.00,,,0.00,Wunderground v.1.15,2013-02-28 16:59:00,
2013-02-28 10:04:00,31.0,11.6,30.61,East,94,3.0,10.0,44,0.00,,,0.00,Wunderground v.1.15,2013-02-28 17:04:00,
2013-02-28 10:09:00,31.8,11.3,30.61,ENE,78,7.0,11.0,42,0.00,,,0.00,Wunderground v.1.15,2013-02-28 17:09:00,
2013-02-28 10:14:00,32.1,11.6,30.61,East,88,5.0,11.0,42,0.00,,,0.00,Wunderground v.1.15,2013-02-28 17:14:00,
2013-02-28 10:19:00,31.9,10.8,30.61,ENE,76,6.0,11.0,41,0.00,,,0.00,Wunderground v.1.15,2013-02-28 17:19:00,
2013-02-28 10:24:00,32.4,10.7,30.60,East,82,4.0,10.0,40,0.00,,,0.00,Wunderground v.1.15,2013-02-28 17:24:00,
2013-02-28 10:30:00,32.4,10.2,30.60,East,81,5.0,15.0,39,0.00,,,0.00,Wunderground v.1.15,2013-02-28 17:30:00,
2013-02-28 10:35:00,32.4,10.2,30.60,East,85,5.0,14.0,39,0.00,,,0.00,Wunderground v.1.15,2013-02-28 17:35:00,
2013-02-28 10:40:00,32.5,9.7,30.60,ENE,63,6.0,14.0,38,0.00,,,0.00,Wunderground v.1.15,2013-02-28 17:40:00,
2013-02-28 10:45:00,32.9,10.0,30.60,ENE,69,4.0,11.0,38,0.00,,,0.00,Wunderground v.1.15,2013-02-28 17:45:00,
2013-02-28 10:50:00,33.2,10.3,30.60,East,81,6.0,11.0,38,0.00,,,0.00,Wunderground v.1.15,2013-02-28 17:50:00,
2013-02-28 10:55:00,33.4,10.5,30.60,ENE,76,4.0,10.0,38,0.00,,,0.00,Wunderground v.1.15,2013-02-28 17:55:00,
2013-02-28 11:00:00,33.5,10.6,30.60,ENE,65,7.0,11.0,38,0.00,,,0.00,Wunderground v.1.15,2013-02-28 18:00:00,
2013-02-28 11:05:00,33.7,10.1,30.60,East,84,5.0,10.0,37,0.00,,,0.00,Wunderground v.1.15,2013-02-28 18:05:00,
2013-02-28 11:10:00,33.8,10.2,30.58,East,88,1.0,4.0,37,0.00,,,0.00,Wunderground v.1.15,2013-02-28 18:10:00,
2013-02-28 11:15:00,34.1,9.9,30.58,East,83,4.0,9.0,36,0.00,,,0.00,Wunderground v.1.15,2013-02-28 18:15:00,
2013-02-28 11:20:00,34.6,11.0,30.58,East,101,4.0,4.0,37,0.00,,,0.00,Wunderground v.1.15,2013-02-28 18:20:00,
2013-02-28 11:25:00,35.3,11.6,30.57,SE,132,0.0,13.0,37,0.00,,,0.00,Wunderground v.1.15,2013-02-28 18:25:00,
2013-02-28 11:30:00,35.8,11.4,30.57,ENE,78,2.0,5.0,36,0.00,,,0.00,Wunderground v.1.15,2013-02-28 18:30:00,
2013-02-28 11:35:00,36.0,10.3,30.57,ENE,74,1.0,6.0,34,0.00,,,0.00,Wunderground v.1.15,2013-02-28 18:35:00,
2013-02-28 11:40:00,36.3,11.9,30.57,ESE,103,4.0,5.0,36,0.00,,,0.00,Wunderground v.1.15,2013-02-28 18:40:00,
2013-02-28 11:45:00,36.5,10.7,30.57,East,82,1.0,6.0,34,0.00,,,0.00,Wunderground v.1.15,2013-02-28 18:45:00,
2013-02-28 11:50:00,36.6,10.8,30.56,ENE,76,1.0,3.0,34,0.00,,,0.00,Wunderground v.1.15,2013-02-28 18:50:00,
2013-02-28 11:56:00,37.3,12.1,30.56,ESE,113,4.0,6.0,35,0.00,,,0.00,Wunderground v.1.15,2013-02-28 18:56:00,
2013-02-28 12:01:00,37.9,11.3,30.56,ESE,105,2.0,3.0,33,0.00,,,0.00,Wunderground v.1.15,2013-02-28 19:01:00,
2013-02-28 12:06:00,38.3,11.7,30.55,East,92,1.0,5.0,33,0.00,,,0.00,Wunderground v.1.15,2013-02-28 19:06:00,
2013-02-28 12:11:00,38.8,12.1,30.55,ENE,72,3.0,4.0,33,0.00,,,0.00,Wunderground v.1.15,2013-02-28 19:11:00,
2013-02-28 12:16:00,38.9,10.8,30.55,SE,143,1.0,8.0,31,0.00,,,0.00,Wunderground v.1.15,2013-02-28 19:16:00,
2013-02-28 12:21:00,39.1,11.0,30.54,East,84,0.0,3.0,31,0.00,,,0.00,Wunderground v.1.15,2013-02-28 19:21:00,
2013-02-28 12:26:00,39.2,11.0,30.54,ESE,120,4.0,8.0,31,0.00,,,0.00,Wunderground v.1.15,2013-02-28 19:26:00,
2013-02-28 12:31:00,39.5,10.6,30.54,ESE,120,0.0,2.0,30,0.00,,,0.00,Wunderground v.1.15,2013-02-28 19:31:00,
2013-02-28 12:36:00,39.9,11.7,30.53,ESE,121,4.0,4.0,31,0.00,,,0.00,Wunderground v.1.15,2013-02-28 19:36:00,
2013-02-28 12:41:00,40.1,11.1,30.53,NE,52,5.0,5.0,30,0.00,,,0.00,Wunderground v.1.15,2013-02-28 19:41:00,
2013-02-28 12:46:00,40.2,9.6,30.53,ENE,76,0.0,7.0,28,0.00,,,0.00,Wunderground v.1.15,2013-02-28 19:46:00,
2013-02-28 12:51:00,40.2,11.2,30.52,ENE,66,2.0,3.0,30,0.00,,,0.00,Wunderground v.1.15,2013-02-28 19:51:00,
2013-02-28 12:56:00,40.2,11.2,30.52,ESE,109,1.0,5.0,30,0.00,,,0.00,Wunderground v.1.15,2013-02-28 19:56:00,
2013-02-28 13:01:00,40.6,12.3,30.52,SSE,159,4.0,6.0,31,0.00,,,0.00,Wunderground v.1.15,2013-02-28 20:01:00,
2013-02-28 13:06:00,40.9,10.2,30.50,East,80,1.0,6.0,28,0.00,,,0.00,Wunderground v.1.15,2013-02-28 20:06:00,
2013-02-28 13:11:00,41.3,10.6,30.50,East,80,0.0,5.0,28,0.00,,,0.00,Wunderground v.1.15,2013-02-28 20:11:00,
2013-02-28 13:16:00,41.1,10.4,30.50,ENE,69,1.0,5.0,28,0.00,,,0.00,Wunderground v.1.15,2013-02-28 20:16:00,
2013-02-28 13:21:00,41.3,10.6,30.42,East,82,2.0,4.0,28,0.00,,,0.00,Wunderground v.1.15,2013-02-28 20:21:00,
2013-02-28 13:26:00,41.5,10.8,30.42,SE,130,4.0,6.0,28,0.00,,,0.00,Wunderground v.1.15,2013-02-28 20:26:00,
2013-02-28 13:31:00,41.6,10.9,30.42,NNE,32,2.0,5.0,28,0.00,,,0.00,Wunderground v.1.15,2013-02-28 20:31:00,
2013-02-28 13:36:00,41.9,11.1,30.42,NE,55,1.0,6.0,28,0.00,,,0.00,Wunderground v.1.15,2013-02-28 20:36:00,
2013-02-28 13:41:00,41.9,11.1,30.42,ENE,59,2.0,3.0,28,0.00,,,0.00,Wunderground v.1.15,2013-02-28 20:41:00,
2013-02-28 13:46:00,41.6,10.9,30.42,NE,34,0.0,10.0,28,0.00,,,0.00,Wunderground v.1.15,2013-02-28 20:46:00,
2013-02-28 13:51:00,41.8,11.0,30.42,NE,49,2.0,7.0,28,0.00,,,0.00,Wunderground v.1.15,2013-02-28 20:51:00,
2013-02-28 13:56:00,41.9,11.1,30.42,NNE,20,0.0,7.0,28,0.00,,,0.00,Wunderground v.1.15,2013-02-28 20:56:00,
2013-02-28 14:02:00,42.5,11.6,30.42,NNE,20,0.0,1.0,28,0.00,,,0.00,Wunderground v.1.15,2013-02-28 21:02:00,
2013-02-28 14:07:00,42.9,11.2,30.41,NNE,20,1.0,4.0,27,0.00,,,0.00,Wunderground v.1.15,2013-02-28 21:07:00,
2013-02-28 14:12:00,42.6,11.7,30.41,NNE,24,2.0,2.0,28,0.00,,,0.00,Wunderground v.1.15,2013-02-28 21:12:00,
2013-02-28 14:17:00,42.6,11.7,30.41,NNE,24,0.0,3.0,28,0.00,,,0.00,Wunderground v.1.15,2013-02-28 21:17:00,
2013-02-28 14:22:00,43.1,12.2,30.44,NNE,24,0.0,3.0,28,0.00,,,0.00,Wunderground v.1.15,2013-02-28 21:22:00,
2013-02-28 14:27:00,43.1,11.3,30.44,NW,325,0.0,5.0,27,0.00,,,0.00,Wunderground v.1.15,2013-02-28 21:27:00,
2013-02-28 14:32:00,43.5,10.8,30.44,NW,320,0.0,4.0,26,0.00,,,0.00,Wunderground v.1.15,2013-02-28 21:32:00,
2013-02-28 14:37:00,43.9,12.0,30.43,NNW,329,1.0,6.0,27,0.00,,,0.00,Wunderground v.1.15,2013-02-28 21:37:00,
2013-02-28 14:42:00,43.8,11.9,30.43,NE,38,1.0,5.0,27,0.00,,,0.00,Wunderground v.1.15,2013-02-28 21:42:00,
2013-02-28 14:47:00,43.3,11.5,30.43,NE,34,2.0,5.0,27,0.00,,,0.00,Wunderground v.1.15,2013-02-28 21:47:00,
2013-02-28 14:52:00,43.2,12.2,30.43,NNE,19,3.0,6.0,28,0.00,,,0.00,Wunderground v.1.15,2013-02-28 21:52:00,
2013-02-28 14:57:00,43.1,11.3,30.43,North,355,2.0,8.0,27,0.00,,,0.00,Wunderground v.1.15,2013-02-28 21:57:00,
2013-02-28 15:02:00,43.1,11.3,30.43,North,355,0.0,3.0,27,0.00,,,0.00,Wunderground v.1.15,2013-02-28 22:02:00,
2013-02-28 15:07:00,43.6,12.6,30.42,North,360,5.0,7.0,28,0.00,,,0.00,Wunderground v.1.15,2013-02-28 22:07:00,
2013-02-28 15:12:00,43.6,12.6,30.42,North,349,3.0,5.0,28,0.00,,,0.00,Wunderground v.1.15,2013-02-28 22:12:00,
2013-02-28 15:17:00,43.5,11.7,30.42,North,349,2.0,5.0,27,0.00,,,0.00,Wunderground v.1.15,2013-02-28 22:17:00,
2013-02-28 15:22:00,43.6,12.6,30.41,NNW,346,0.0,5.0,28,0.00,,,0.00,Wunderground v.1.15,2013-02-28 22:22:00,
2013-02-28 15:27:00,44.5,12.5,30.41,NNW,340,1.0,6.0,27,0.00,,,0.00,Wunderground v.1.15,2013-02-28 22:27:00,
2013-02-28 15:32:00,44.9,12.9,30.41,WNW,298,3.0,6.0,27,0.00,,,0.00,Wunderground v.1.15,2013-02-28 22:32:00,
2013-02-28 15:37:00,44.8,13.6,30.39,NNW,338,3.0,10.0,28,0.00,,,0.00,Wunderground v.1.15,2013-02-28 22:37:00,
2013-02-28 15:42:00,44.6,13.5,30.39,NNW,343,4.0,7.0,28,0.00,,,0.00,Wunderground v.1.15,2013-02-28 22:42:00,
2013-02-28 15:47:00,44.5,13.4,30.39,NNW,338,0.0,7.0,28,0.00,,,0.00,Wunderground v.1.15,2013-02-28 22:47:00,
2013-02-28 15:52:00,44.8,13.6,30.39,NNW,338,1.0,4.0,28,0.00,,,0.00,Wunderground v.1.15,2013-02-28 22:52:00,
2013-02-28 15:57:00,45.1,13.9,30.39,NNW,338,2.0,4.0,28,0.00,,,0.00,Wunderground v.1.15,2013-02-28 22:57:00,
2013-02-28 16:02:00,45.1,13.9,30.39,NNW,338,1.0,4.0,28,0.00,,,0.00,Wunderground v.1.15,2013-02-28 23:02:00,
2013-02-28 16:07:00,45.2,14.0,30.40,NW,320,6.0,7.0,28,0.00,,,0.00,Wunderground v.1.15,2013-02-28 23:07:00,
2013-02-28 16:12:00,45.4,14.1,30.40,NW,313,1.0,5.0,28,0.00,,,0.00,Wunderground v.1.15,2013-02-28 23:12:00,
2013-02-28 16:17:00,45.7,13.6,30.40,NW,313,3.0,5.0,27,0.00,,,0.00,Wunderground v.1.15,2013-02-28 23:17:00,
2013-02-28 16:22:00,46.0,13.8,30.40,NW,313,0.0,2.0,27,0.00,,,0.00,Wunderground v.1.15,2013-02-28 23:22:00,
2013-02-28 16:27:00,45.8,13.7,30.40,NW,313,1.0,4.0,27,0.00,,,0.00,Wunderground v.1.15,2013-02-28 23:27:00,
2013-02-28 16:32:00,46.0,14.7,30.40,NW,316,4.0,5.0,28,0.00,,,0.00,Wunderground v.1.15,2013-02-28 23:32:00,
2013-02-28 16:37:00,45.8,13.7,30.39,NW,317,1.0,5.0,27,0.00,,,0.00,Wunderground v.1.15,2013-02-28 23:37:00,
2013-02-28 16:42:00,45.4,14.1,30.39,NW,318,1.0,3.0,28,0.00,,,0.00,Wunderground v.1.15,2013-02-28 23:42:00,
2013-02-28 16:48:00,45.1,13.9,30.39,NNW,330,6.0,8.0,28,0.00,,,0.00,Wunderground v.1.15,2013-02-28 23:48:00,
2013-02-28 16:53:00,45.2,14.0,30.40,NW,321,1.0,3.0,28,0.00,,,0.00,Wunderground v.1.15,2013-02-28 23:53:00,
2013-02-28 16:58:00,45.4,13.3,30.40,NW,321,1.0,3.0,27,0.00,,,0.00,Wunderground v.1.15,2013-02-28 23:58:00,
2013-02-28 17:03:00,45.5,13.4,30.40,NW,321,0.0,3.0,27,0.00,,,0.00,Wunderground v.1.15,2013-03-01 00:03:00,
2013-02-28 17:08:00,45.8,13.7,30.39,NNW,333,3.0,7.0,27,0.00,,,0.00,Wunderground v.1.15,2013-03-01 00:08:00,
2013-02-28 17:13:00,45.4,14.1,30.39,NNW,333,2.0,4.0,28,0.00,,,0.00,Wunderground v.1.15,2013-03-01 00:13:00,
2013-02-28 17:18:00,44.9,13.7,30.39,NNW,328,0.0,4.0,28,0.00,,,0.00,Wunderground v.1.15,2013-03-01 00:18:00,
2013-02-28 17:23:00,44.5,13.4,30.42,NNW,340,1.0,5.0,28,0.00,,,0.00,Wunderground v.1.15,2013-03-01 00:23:00,
2013-02-28 17:28:00,43.8,12.8,30.42,NNW,337,0.0,6.0,28,0.00,,,0.00,Wunderground v.1.15,2013-03-01 00:28:00,
2013-02-28 17:33:00,42.8,11.9,30.42,NNW,337,1.0,2.0,28,0.00,,,0.00,Wunderground v.1.15,2013-03-01 00:33:00,
2013-02-28 17:38:00,41.9,11.9,30.45,NNW,337,0.0,2.0,29,0.00,,,0.00,Wunderground v.1.15,2013-03-01 00:38:00,
2013-02-28 17:43:00,41.1,12.0,30.45,NNW,337,0.0,0.0,30,0.00,,,0.00,Wunderground v.1.15,2013-03-01 00:43:00,
2013-02-28 17:48:00,39.9,11.7,30.45,NNW,337,0.0,0.0,31,0.00,,,0.00,Wunderground v.1.15,2013-03-01 00:48:00,
2013-02-28 17:53:00,38.0,10.7,30.47,NNW,337,0.0,0.0,32,0.00,,,0.00,Wunderground v.1.15,2013-03-01 00:53:00,
2013-02-28 17:58:00,36.0,11.6,30.47,NNW,337,0.0,0.0,36,0.00,,,0.00,Wunderground v.1.15,2013-03-01 00:58:00,
2013-02-28 18:03:00,34.3,11.3,30.47,NNW,337,0.0,0.0,38,0.00,,,0.00,Wunderground v.1.15,2013-03-01 01:03:00,
2013-02-28 18:08:00,32.9,11.2,30.51,NNW,337,0.0,0.0,40,0.00,,,0.00,Wunderground v.1.15,2013-03-01 01:08:00,
2013-02-28 18:13:00,31.8,11.8,30.51,NNW,337,0.0,0.0,43,0.00,,,0.00,Wunderground v.1.15,2013-03-01 01:13:00,
2013-02-28 18:18:00,30.7,11.8,30.51,NNW,337,0.0,0.0,45,0.00,,,0.00,Wunderground v.1.15,2013-03-01 01:18:00,
2013-02-28 18:23:00,29.8,11.5,30.52,NNW,337,0.0,0.0,46,0.00,,,0.00,Wunderground v.1.15,2013-03-01 01:23:00,
2013-02-28 18:28:00,29.1,11.4,30.52,NNW,337,0.0,0.0,47,0.00,,,0.00,Wunderground v.1.15,2013-03-01 01:28:00,
2013-02-28 18:33:00,28.5,12.2,30.52,NNW,337,0.0,0.0,50,0.00,,,0.00,Wunderground v.1.15,2013-03-01 01:33:00,
2013-02-28 18:38:00,28.2,12.4,30.54,NNW,337,0.0,0.0,51,0.00,,,0.00,Wunderground v.1.15,2013-03-01 01:38:00,
2013-02-28 18:43:00,27.6,12.2,30.54,NNW,337,0.0,0.0,52,0.00,,,0.00,Wunderground v.1.15,2013-03-01 01:43:00,
2013-02-28 18:48:00,27.2,12.3,30.54,NNW,337,0.0,0.0,53,0.00,,,0.00,Wunderground v.1.15,2013-03-01 01:48:00,
2013-02-28 18:53:00,26.7,12.3,30.55,NNW,337,0.0,0.0,54,0.00,,,0.00,Wunderground v.1.15,2013-03-01 01:53:00,
2013-02-28 18:58:00,26.3,12.3,30.55,NNW,337,0.0,0.0,55,0.00,,,0.00,Wunderground v.1.15,2013-03-01 01:58:00,
2013-02-28 19:03:00,25.7,12.2,30.55,NNW,337,0.0,0.0,56,0.00,,,0.00,Wunderground v.1.15,2013-03-01 02:03:00,
2013-02-28 19:08:00,25.4,12.3,30.55,NNW,337,0.0,0.0,57,0.00,,,0.00,Wunderground v.1.15,2013-03-01 02:08:00,
2013-02-28 19:13:00,25.3,12.6,30.55,NNW,337,0.0,0.0,58,0.00,,,0.00,Wunderground v.1.15,2013-03-01 02:13:00,
2013-02-28 19:18:00,25.3,13.0,30.55,NNW,337,0.0,0.0,59,0.00,,,0.00,Wunderground v.1.15,2013-03-01 02:18:00,
2013-02-28 19:23:00,25.3,13.0,30.54,NNW,337,0.0,0.0,59,0.00,,,0.00,Wunderground v.1.15,2013-03-01 02:23:00,
2013-02-28 19:28:00,25.4,13.4,30.54,NNW,337,0.0,0.0,60,0.00,,,0.00,Wunderground v.1.15,2013-03-01 02:28:00,
2013-02-28 19:33:00,25.4,13.4,30.54,NNW,337,0.0,0.0,60,0.00,,,0.00,Wunderground v.1.15,2013-03-01 02:33:00,
2013-02-28 19:38:00,25.4,13.4,30.54,NNW,337,0.0,0.0,60,0.00,,,0.00,Wunderground v.1.15,2013-03-01 02:38:00,
2013-02-28 19:43:00,25.3,13.7,30.54,NNW,337,0.0,0.0,61,0.00,,,0.00,Wunderground v.1.15,2013-03-01 02:43:00,
2013-02-28 19:48:00,25.1,13.5,30.54,NNW,337,0.0,0.0,61,0.00,,,0.00,Wunderground v.1.15,2013-03-01 02:48:00,
2013-02-28 19:53:00,24.8,13.2,30.54,NNW,337,0.0,0.0,61,0.00,,,0.00,Wunderground v.1.15,2013-03-01 02:53:00,
2013-02-28 19:58:00,24.4,13.2,30.54,NNW,337,0.0,0.0,62,0.00,,,0.00,Wunderground v.1.15,2013-03-01 02:58:00,
2013-02-28 20:03:00,23.9,13.1,30.54,NNW,337,0.0,0.0,63,0.00,,,0.00,Wunderground v.1.15,2013-03-01 03:03:00,
2013-02-28 20:08:00,24.1,13.7,30.54,NNW,337,0.0,0.0,64,0.00,,,0.00,Wunderground v.1.15,2013-03-01 03:08:00,
2013-02-28 20:13:00,23.9,13.5,30.54,NNW,337,0.0,0.0,64,0.00,,,0.00,Wunderground v.1.15,2013-03-01 03:13:00,
2013-02-28 20:18:00,23.5,13.1,30.54,NNW,337,0.0,0.0,64,0.00,,,0.00,Wunderground v.1.15,2013-03-01 03:18:00,
2013-02-28 20:23:00,23.3,12.9,30.53,NNW,337,0.0,0.0,64,0.00,,,0.00,Wunderground v.1.15,2013-03-01 03:23:00,
2013-02-28 20:28:00,23.3,13.3,30.53,NNW,337,0.0,0.0,65,0.00,,,0.00,Wunderground v.1.15,2013-03-01 03:28:00,
2013-02-28 20:33:00,23.5,13.5,30.53,NNW,337,1.0,2.0,65,0.00,,,0.00,Wunderground v.1.15,2013-03-01 03:33:00,
2013-02-28 20:38:00,23.2,13.5,30.53,NNW,337,0.0,2.0,66,0.00,,,0.00,Wunderground v.1.15,2013-03-01 03:38:00,
2013-02-28 20:43:00,23.3,13.6,30.53,NNW,337,0.0,0.0,66,0.00,,,0.00,Wunderground v.1.15,2013-03-01 03:43:00,
2013-02-28 20:48:00,23.3,13.6,30.53,NNW,337,0.0,0.0,66,0.00,,,0.00,Wunderground v.1.15,2013-03-01 03:48:00,
2013-02-28 20:53:00,22.9,13.2,30.53,NNW,337,0.0,0.0,66,0.00,,,0.00,Wunderground v.1.15,2013-03-01 03:53:00,
2013-02-28 20:58:00,22.7,13.4,30.53,NNW,337,0.0,0.0,67,0.00,,,0.00,Wunderground v.1.15,2013-03-01 03:58:00,
2013-02-28 21:03:00,22.7,13.7,30.53,NNW,337,0.0,0.0,68,0.00,,,0.00,Wunderground v.1.15,2013-03-01 04:03:00,
2013-02-28 21:08:00,22.9,13.9,30.54,NNW,337,0.0,0.0,68,0.00,,,0.00,Wunderground v.1.15,2013-03-01 04:08:00,
2013-02-28 21:13:00,22.9,13.9,30.54,NNW,337,0.0,0.0,68,0.00,,,0.00,Wunderground v.1.15,2013-03-01 04:13:00,
2013-02-28 21:18:00,22.7,13.7,30.54,NNW,337,0.0,0.0,68,0.00,,,0.00,Wunderground v.1.15,2013-03-01 04:18:00,
2013-02-28 21:23:00,22.7,13.7,30.53,NNW,337,0.0,0.0,68,0.00,,,0.00,Wunderground v.1.15,2013-03-01 04:23:00,
2013-02-28 21:28:00,23.0,14.3,30.53,NNW,337,0.0,0.0,69,0.00,,,0.00,Wunderground v.1.15,2013-03-01 04:28:00,
2013-02-28 21:33:00,23.2,14.5,30.53,NNW,337,0.0,0.0,69,0.00,,,0.00,Wunderground v.1.15,2013-03-01 04:33:00,
2013-02-28 21:38:00,24.1,15.1,30.53,NNW,337,0.0,0.0,68,0.00,,,0.00,Wunderground v.1.15,2013-03-01 04:38:00,
2013-02-28 21:44:00,23.6,14.2,30.53,NNW,337,0.0,0.0,67,0.00,,,0.00,Wunderground v.1.15,2013-03-01 04:44:00,
2013-02-28 21:48:00,23.0,14.0,30.53,NNW,337,0.0,0.0,68,0.00,,,0.00,Wunderground v.1.15,2013-03-01 04:48:00,
2013-02-28 21:54:00,22.5,13.5,30.53,NNW,337,0.0,0.0,68,0.00,,,0.00,Wunderground v.1.15,2013-03-01 04:54:00,
2013-02-28 21:59:00,22.4,13.8,30.53,NNW,337,0.0,0.0,69,0.00,,,0.00,Wunderground v.1.15,2013-03-01 04:59:00,
2013-02-28 22:00:00,22.4,13.8,30.53,NNW,337,0.0,0.0,69,0.00,,,0.00,Wunderground v.1.15,2013-03-01 05:00:00,
2013-02-28 22:01:00,22.4,13.8,30.53,NNW,337,0.0,0.0,69,0.00,,,0.00,Wunderground v.1.15,2013-03-01 05:01:00,
2013-02-28 22:06:00,22.1,13.5,30.55,NNW,337,0.0,0.0,69,0.00,,,0.00,Wunderground v.1.15,2013-03-01 05:06:00,
2013-02-28 22:11:00,21.6,13.3,30.55,NNW,337,0.0,0.0,70,0.00,,,0.00,Wunderground v.1.15,2013-03-01 05:11:00,
2013-02-28 22:16:00,21.4,13.5,30.55,NNW,337,0.0,0.0,71,0.00,,,0.00,Wunderground v.1.15,2013-03-01 05:16:00,
2013-02-28 22:21:00,21.1,13.2,30.54,NNW,337,0.0,0.0,71,0.00,,,0.00,Wunderground v.1.15,2013-03-01 05:21:00,
2013-02-28 22:26:00,21.0,13.1,30.54,NNW,337,0.0,0.0,71,0.00,,,0.00,Wunderground v.1.15,2013-03-01 05:26:00,
2013-02-28 22:31:00,20.8,13.2,30.54,NNW,337,0.0,0.0,72,0.00,,,0.00,Wunderground v.1.15,2013-03-01 05:31:00,
2013-02-28 22:36:00,21.1,13.5,30.54,NNW,337,0.0,0.0,72,0.00,,,0.00,Wunderground v.1.15,2013-03-01 05:36:00,
2013-02-28 22:41:00,21.4,14.1,30.54,NNW,337,0.0,0.0,73,0.00,,,0.00,Wunderground v.1.15,2013-03-01 05:41:00,
2013-02-28 22:46:00,21.8,14.5,30.54,NNW,337,0.0,0.0,73,0.00,,,0.00,Wunderground v.1.15,2013-03-01 05:46:00,
2013-02-28 22:51:00,21.9,14.3,30.52,NNW,337,0.0,0.0,72,0.00,,,0.00,Wunderground v.1.15,2013-03-01 05:51:00,
2013-02-28 22:56:00,21.8,14.2,30.52,NNW,337,0.0,0.0,72,0.00,,,0.00,Wunderground v.1.15,2013-03-01 05:56:00,
2013-02-28 23:01:00,21.4,13.8,30.52,NNW,337,0.0,0.0,72,0.00,,,0.00,Wunderground v.1.15,2013-03-01 06:01:00,
2013-02-28 23:06:00,21.1,13.5,30.54,NNW,337,0.0,0.0,72,0.00,,,0.00,Wunderground v.1.15,2013-03-01 06:06:00,
2013-02-28 23:11:00,20.6,13.0,30.54,NNW,337,0.0,0.0,72,0.00,,,0.00,Wunderground v.1.15,2013-03-01 06:11:00,
2013-02-28 23:16:00,20.5,12.9,30.54,NNW,337,0.0,0.0,72,0.00,,,0.00,Wunderground v.1.15,2013-03-01 06:16:00,
2013-02-28 23:21:00,20.2,12.9,30.51,NNW,337,0.0,0.0,73,0.00,,,0.00,Wunderground v.1.15,2013-03-01 06:21:00,
2013-02-28 23:26:00,20.0,12.7,30.51,NNW,337,0.0,0.0,73,0.00,,,0.00,Wunderground v.1.15,2013-03-01 06:26:00,
2013-02-28 23:31:00,20.2,13.2,30.51,NNW,337,0.0,0.0,74,0.00,,,0.00,Wunderground v.1.15,2013-03-01 06:31:00,
2013-02-28 23:36:00,20.2,13.2,30.51,NNW,337,0.0,0.0,74,0.00,,,0.00,Wunderground v.1.15,2013-03-01 06:36:00,
2013-02-28 23:41:00,20.2,13.2,30.51,NNW,337,0.0,0.0,74,0.00,,,0.00,Wunderground v.1.15,2013-03-01 06:41:00,
2013-02-28 23:46:00,19.9,12.9,30.51,NNW,337,0.0,0.0,74,0.00,,,0.00,Wunderground v.1.15,2013-03-01 06:46:00,
2013-02-28 23:51:00,20.0,13.3,30.50,NNW,337,0.0,0.0,75,0.00,,,0.00,Wunderground v.1.15,2013-03-01 06:51:00,
2013-02-28 23:56:00,20.0,13.0,30.50,NNW,337,0.0,0.0,74,0.00,,,0.00,Wunderground v.1.15,2013-03-01 06:56:00,